| time (UTC) | temp F | wind direction | speed knots | gust knots | rain 1hr in | rain 24hr in | rain mn in | humidity % | barometer mb |
| 20260506194837 | 71 | 40 | 4.3 | 11.3 | 0.00 | 0.00 | 0.00 | 64 | 1018.5 |
| 20260506194611 | 70 | 329 | 4.3 | 9.6 | 0.00 | 0.00 | 0.00 | 65 | 1018.5 |
| 20260506193840 | 71 | 2 | 5.2 | 10.4 | 0.00 | 0.00 | 0.00 | 65 | 1018.5 |
| 20260506193334 | 71 | 0 | 5.2 | 10.4 | 0.00 | 0.00 | 0.00 | 64 | 1018.6 |
| 20260506192834 | 69 | 307 | 4.3 | 9.6 | 0.00 | 0.00 | 0.00 | 66 | 1018.6 |
| 20260506192338 | 70 | 314 | 4.3 | 9.6 | 0.00 | 0.00 | 0.00 | 65 | 1018.7 |
| 20260506191835 | 69 | 338 | 4.3 | 10.4 | 0.00 | 0.00 | 0.00 | 68 | 1018.6 |
| 20260506191332 | 71 | 345 | 3.5 | 10.4 | 0.00 | 0.00 | 0.00 | 65 | 1018.6 |
| 20260506191050 | 71 | 30 | 2.6 | 7.0 | 0.00 | 0.00 | 0.00 | 67 | 1018.6 |
| 20260506190333 | 70 | 310 | 3.5 | 11.3 | 0.00 | 0.00 | 0.00 | 65 | 1018.7 |
| 20260506185832 | 70 | 22 | 4.3 | 11.3 | 0.00 | 0.00 | 0.00 | 67 | 1018.8 |
| 20260506185551 | 69 | 321 | 3.5 | 8.7 | 0.00 | 0.00 | 0.00 | 68 | 1018.8 |
| 20260506184829 | 69 | 317 | 4.3 | 8.7 | 0.00 | 0.00 | 0.00 | 68 | 1018.8 |
| 20260506184330 | 70 | 320 | 4.3 | 8.7 | 0.00 | 0.00 | 0.00 | 70 | 1018.9 |
| 20260506183832 | 69 | 278 | 3.5 | 9.6 | 0.00 | 0.00 | 0.00 | 71 | 1018.9 |
| 20260506183329 | 68 | 349 | 4.3 | 9.6 | 0.00 | 0.00 | 0.00 | 71 | 1019.0 |
| 20260506182828 | 68 | 298 | 4.3 | 9.6 | 0.00 | 0.00 | 0.00 | 72 | 1019.1 |
| 20260506182330 | 68 | 307 | 3.5 | 8.7 | 0.00 | 0.00 | 0.00 | 74 | 1019.1 |
| 20260506181830 | 68 | 256 | 3.5 | 8.7 | 0.00 | 0.00 | 0.00 | 72 | 1019.2 |
| 20260506181324 | 67 | 313 | 2.6 | 7.0 | 0.00 | 0.00 | 0.00 | 73 | 1019.2 |
| 20260506180826 | 66 | 307 | 3.5 | 7.0 | 0.00 | 0.00 | 0.00 | 73 | 1019.2 |
| 20260506180326 | 66 | 295 | 3.5 | 7.0 | 0.00 | 0.00 | 0.00 | 73 | 1019.1 |
| 20260506180054 | 67 | 294 | 2.6 | 7.0 | 0.00 | 0.00 | 0.00 | 74 | 1019.2 |
| 20260506175324 | 67 | 278 | 2.6 | 7.8 | 0.00 | 0.00 | 0.00 | 73 | 1019.2 |
| 20260506174823 | 67 | 296 | 4.3 | 7.8 | 0.00 | 0.00 | 0.00 | 74 | 1019.3 |
| 20260506174324 | 66 | 312 | 3.5 | 7.8 | 0.00 | 0.00 | 0.00 | 74 | 1019.3 |
| 20260506174048 | 66 | 305 | 3.5 | 6.1 | 0.00 | 0.00 | 0.00 | 76 | 1019.2 |
| 20260506173326 | 65 | 295 | 3.5 | 7.0 | 0.00 | 0.00 | 0.00 | 74 | 1019.2 |
| 20260506172823 | 65 | 315 | 4.3 | 7.0 | 0.00 | 0.00 | 0.00 | 76 | 1019.3 |
| 20260506172326 | 65 | 314 | 4.3 | 7.0 | 0.00 | 0.00 | 0.00 | 76 | 1019.2 |
| 20260506171823 | 64 | 270 | 5.2 | 8.7 | 0.00 | 0.00 | 0.00 | 78 | 1019.2 |
| 20260506171545 | 64 | 279 | 5.2 | 8.7 | 0.00 | 0.00 | 0.00 | 79 | 1019.2 |
| 20260506170825 | 64 | 272 | 5.2 | 8.7 | 0.00 | 0.00 | 0.00 | 76 | 1019.3 |
| 20260506170325 | 64 | 287 | 6.1 | 9.6 | 0.00 | 0.00 | 0.00 | 78 | 1019.3 |
| 20260506165828 | 64 | 239 | 6.1 | 9.6 | 0.00 | 0.00 | 0.00 | 79 | 1019.3 |
| 20260506165326 | 63 | 262 | 6.1 | 8.7 | 0.00 | 0.00 | 0.00 | 79 | 1019.3 |
| 20260506164828 | 63 | 278 | 5.2 | 8.7 | 0.00 | 0.00 | 0.00 | 79 | 1019.3 |
| 20260506164321 | 63 | 255 | 5.2 | 8.7 | 0.00 | 0.00 | 0.00 | 78 | 1019.3 |
| 20260506164040 | 62 | 299 | 6.1 | 8.7 | 0.00 | 0.00 | 0.00 | 78 | 1019.2 |
| 20260506163309 | 62 | 237 | 6.1 | 8.7 | 0.00 | 0.00 | 0.00 | 80 | 1019.2 |
| 20260506162804 | 62 | 282 | 5.2 | 8.7 | 0.00 | 0.00 | 0.00 | 80 | 1019.2 |
| 20260506162259 | 61 | 255 | 4.3 | 8.7 | 0.00 | 0.00 | 0.00 | 82 | 1019.2 |
| 20260506162016 | 61 | 272 | 4.3 | 8.7 | 0.00 | 0.00 | 0.00 | 82 | 1019.3 |
| 20260506161248 | 60 | 290 | 5.2 | 8.7 | 0.00 | 0.00 | 0.00 | 82 | 1019.3 |
| 20260506160747 | 60 | 286 | 4.3 | 7.8 | 0.00 | 0.00 | 0.00 | 83 | 1019.4 |
| 20260506160248 | 60 | 294 | 5.2 | 7.0 | 0.00 | 0.00 | 0.00 | 83 | 1019.3 |
| 20260506155748 | 59 | 263 | 6.1 | 7.8 | 0.00 | 0.00 | 0.00 | 84 | 1019.4 |
| 20260506155245 | 59 | 246 | 6.1 | 7.8 | 0.00 | 0.00 | 0.00 | 84 | 1019.4 |
| 20260506154743 | 59 | 259 | 5.2 | 7.8 | 0.00 | 0.00 | 0.00 | 84 | 1019.4 |
| 20260506154243 | 59 | 243 | 5.2 | 7.8 | 0.00 | 0.00 | 0.00 | 85 | 1019.3 |
| 20260506153743 | 59 | 265 | 4.3 | 7.8 | 0.00 | 0.00 | 0.00 | 85 | 1019.4 |
| 20260506153242 | 59 | 257 | 3.5 | 7.8 | 0.00 | 0.00 | 0.00 | 86 | 1019.5 |
| 20260506152743 | 58 | 263 | 2.6 | 6.1 | 0.00 | 0.00 | 0.00 | 86 | 1019.4 |
| 20260506152243 | 58 | 265 | 2.6 | 5.2 | 0.00 | 0.00 | 0.00 | 87 | 1019.3 |
| 20260506151743 | 58 | 261 | 3.5 | 6.1 | 0.00 | 0.00 | 0.00 | 87 | 1019.4 |
| 20260506151459 | 58 | 274 | 4.3 | 7.8 | 0.00 | 0.00 | 0.00 | 87 | 1019.4 |
| 20260506150744 | 58 | 261 | 4.3 | 7.8 | 0.00 | 0.00 | 0.00 | 87 | 1019.4 |
| 20260506150239 | 58 | 256 | 3.5 | 7.0 | 0.00 | 0.00 | 0.00 | 88 | 1019.5 |
| 20260506145739 | 58 | 265 | 3.5 | 6.1 | 0.00 | 0.00 | 0.00 | 88 | 1019.4 |
| 20260506145240 | 58 | 255 | 3.5 | 6.1 | 0.00 | 0.00 | 0.00 | 88 | 1019.4 |
| 20260506144735 | 57 | 258 | 2.6 | 5.2 | 0.00 | 0.00 | 0.00 | 88 | 1019.4 |
| 20260506144228 | 57 | 276 | 0.9 | 3.5 | 0.00 | 0.00 | 0.00 | 89 | 1019.4 |
| 20260506143722 | 57 | 276 | 0.9 | 3.5 | 0.00 | 0.00 | 0.00 | 89 | 1019.2 |
| 20260506143216 | 57 | 277 | 1.7 | 3.5 | 0.00 | 0.00 | 0.00 | 89 | 1019.3 |
| 20260506142710 | 57 | 278 | 1.7 | 3.5 | 0.00 | 0.00 | 0.00 | 89 | 1019.2 |
| 20260506142204 | 57 | 278 | 0.0 | 3.5 | 0.00 | 0.00 | 0.00 | 89 | 1019.1 |
| 20260506141658 | 57 | 279 | 0.0 | 0.0 | 0.00 | 0.00 | 0.00 | 90 | 1019.1 |
| 20260506141153 | 57 | 279 | 0.0 | 0.0 | 0.00 | 0.00 | 0.00 | 90 | 1018.9 |
| 20260506140647 | 57 | 279 | 0.0 | 0.0 | 0.00 | 0.00 | 0.00 | 90 | 1018.8 |
| 20260506140140 | 57 | 279 | 0.0 | 0.0 | 0.00 | 0.00 | 0.00 | 90 | 1018.8 |
| 20260506135635 | 56 | 279 | 0.0 | 0.0 | 0.00 | 0.00 | 0.00 | 90 | 1018.8 |
| 20260506135128 | 56 | 279 | 0.0 | 0.0 | 0.00 | 0.00 | 0.00 | 90 | 1018.7 |
| 20260506134842 | 56 | 279 | 0.0 | 0.0 | 0.00 | 0.00 | 0.00 | 90 | 1018.8 |
| 20260506134118 | 56 | 279 | 0.0 | 0.0 | 0.00 | 0.00 | 0.00 | 90 | 1018.7 |
| 20260506133610 | 56 | 279 | 0.0 | 0.0 | 0.00 | 0.00 | 0.00 | 90 | 1018.7 |
| 20260506133104 | 56 | 279 | 0.0 | 0.0 | 0.00 | 0.00 | 0.00 | 90 | 1018.7 |
| 20260506132558 | 56 | 279 | 0.0 | 0.0 | 0.00 | 0.00 | 0.00 | 90 | 1018.7 |
| 20260506132052 | 56 | 279 | 0.0 | 0.0 | 0.00 | 0.00 | 0.00 | 90 | 1018.6 |
| 20260506131547 | 56 | 279 | 0.0 | 0.0 | 0.00 | 0.00 | 0.00 | 91 | 1018.6 |
| 20260506131040 | 56 | 279 | 0.0 | 0.0 | 0.00 | 0.00 | 0.00 | 91 | 1018.5 |
| 20260506130534 | 56 | 279 | 0.0 | 0.0 | 0.00 | 0.00 | 0.00 | 92 | 1018.4 |
| 20260506130251 | 56 | 279 | 0.0 | 0.0 | 0.00 | 0.00 | 0.00 | 93 | 1018.5 |
| 20260506125522 | 56 | 278 | 0.0 | 0.0 | 0.00 | 0.00 | 0.00 | 93 | 1018.5 |
| 20260506125016 | 56 | 278 | 0.0 | 0.0 | 0.00 | 0.00 | 0.00 | 94 | 1018.4 |
| 20260506124510 | 56 | 278 | 0.0 | 0.0 | 0.00 | 0.00 | 0.00 | 93 | 1018.4 |
| 20260506124004 | 56 | 278 | 0.0 | 0.0 | 0.00 | 0.00 | 0.00 | 93 | 1018.4 |
| 20260506123459 | 56 | 278 | 0.0 | 0.0 | 0.00 | 0.00 | 0.00 | 94 | 1018.4 |
| 20260506122952 | 56 | 278 | 0.0 | 0.0 | 0.00 | 0.00 | 0.00 | 94 | 1018.5 |
| 20260506122929 | 56 | 278 | 0.0 | 0.0 | 0.00 | 0.00 | 0.00 | 94 | 1018.4 |
| 20260506122209 | 56 | 278 | 0.0 | 0.0 | 0.00 | 0.00 | 0.00 | 94 | 1018.3 |
| 20260506121434 | 56 | 278 | 0.0 | 0.0 | 0.00 | 0.00 | 0.00 | 95 | 1018.2 |
| 20260506120928 | 56 | 278 | 0.0 | 0.0 | 0.00 | 0.00 | 0.00 | 95 | 1018.1 |
| 20260506120422 | 56 | 278 | 0.0 | 0.0 | 0.00 | 0.00 | 0.00 | 95 | 1018.1 |
| 20260506120138 | 56 | 287 | 0.0 | 0.0 | 0.00 | 0.00 | 0.00 | 95 | 1018.0 |
| 20260506115410 | 56 | 287 | 0.0 | 0.0 | 0.00 | 0.00 | 0.00 | 95 | 1018.0 |
| 20260506114904 | 56 | 288 | 0.0 | 0.0 | 0.00 | 0.00 | 0.00 | 94 | 1018.0 |
| 20260506114358 | 56 | 288 | 0.0 | 0.0 | 0.00 | 0.00 | 0.00 | 94 | 1018.1 |
| 20260506114114 | 56 | 288 | 0.0 | 0.0 | 0.00 | 0.00 | 0.00 | 94 | 1018.1 |
| 20260506113607 | 56 | 288 | 0.0 | 0.0 | 0.00 | 0.00 | 0.00 | 94 | 1018.1 |
| 20260506112841 | 56 | 288 | 0.0 | 0.0 | 0.00 | 0.00 | 0.00 | 94 | 1018.1 |
| 20260506112334 | 56 | 288 | 0.0 | 0.0 | 0.00 | 0.00 | 0.00 | 93 | 1018.1 |
| 20260506111829 | 56 | 288 | 0.0 | 0.0 | 0.00 | 0.00 | 0.00 | 93 | 1018.2 |
| 20260506111323 | 56 | 288 | 0.0 | 0.0 | 0.00 | 0.00 | 0.00 | 93 | 1018.0 |
| 20260506110817 | 56 | 288 | 0.0 | 0.0 | 0.00 | 0.00 | 0.00 | 93 | 1018.0 |
| 20260506110310 | 56 | 288 | 0.0 | 0.0 | 0.00 | 0.00 | 0.00 | 93 | 1017.8 |
| 20260506110028 | 56 | 288 | 0.0 | 0.0 | 0.00 | 0.01 | 0.00 | 92 | 1017.8 |
| 20260506105258 | 56 | 288 | 0.0 | 0.0 | 0.00 | 0.01 | 0.00 | 92 | 1017.7 |
| 20260506104751 | 56 | 288 | 0.0 | 0.0 | 0.00 | 0.01 | 0.00 | 92 | 1017.8 |
| 20260506104249 | 56 | 288 | 0.0 | 0.0 | 0.00 | 0.01 | 0.00 | 92 | 1017.7 |
| 20260506103750 | 56 | 288 | 0.0 | 0.0 | 0.00 | 0.01 | 0.00 | 92 | 1017.7 |
| 20260506103514 | 56 | 288 | 0.0 | 0.0 | 0.00 | 0.01 | 0.00 | 93 | 1017.7 |
| 20260506102749 | 56 | 288 | 0.0 | 0.0 | 0.00 | 0.02 | 0.00 | 93 | 1017.7 |
| 20260506102248 | 56 | 288 | 0.0 | 0.0 | 0.00 | 0.02 | 0.00 | 93 | 1017.6 |
| 20260506101749 | 56 | 288 | 0.0 | 0.0 | 0.00 | 0.02 | 0.00 | 93 | 1017.5 |
| 20260506101514 | 56 | 288 | 0.0 | 0.0 | 0.00 | 0.03 | 0.00 | 92 | 1017.6 |
| 20260506100749 | 56 | 288 | 0.0 | 0.0 | 0.00 | 0.03 | 0.00 | 92 | 1017.5 |
| 20260506100251 | 56 | 288 | 0.0 | 0.0 | 0.00 | 0.03 | 0.00 | 92 | 1017.6 |
| 20260506095750 | 56 | 288 | 0.0 | 0.0 | 0.00 | 0.03 | 0.00 | 92 | 1017.5 |
| 20260506095511 | 56 | 288 | 0.0 | 0.0 | 0.00 | 0.03 | 0.00 | 92 | 1017.6 |
| 20260506094750 | 56 | 288 | 0.0 | 0.0 | 0.00 | 0.03 | 0.00 | 92 | 1017.5 |
| 20260506094249 | 56 | 288 | 0.0 | 0.0 | 0.00 | 0.04 | 0.00 | 93 | 1017.5 |
| 20260506093748 | 56 | 288 | 0.0 | 0.0 | 0.00 | 0.04 | 0.00 | 93 | 1017.4 |
| 20260506093249 | 56 | 288 | 0.0 | 0.0 | 0.00 | 0.05 | 0.00 | 93 | 1017.3 |
| 20260506092749 | 56 | 284 | 0.0 | 0.0 | 0.00 | 0.06 | 0.00 | 94 | 1017.4 |
| 20260506092250 | 56 | 284 | 0.0 | 0.0 | 0.00 | 0.07 | 0.00 | 94 | 1017.4 |
| 20260506091746 | 56 | 284 | 0.0 | 0.0 | 0.00 | 0.09 | 0.00 | 93 | 1017.3 |
| 20260506091241 | 56 | 284 | 0.0 | 0.0 | 0.00 | 0.11 | 0.00 | 93 | 1017.4 |
| 20260506090736 | 56 | 284 | 0.0 | 0.0 | 0.00 | 0.14 | 0.00 | 92 | 1017.5 |
| 20260506090230 | 56 | 284 | 0.0 | 0.0 | 0.00 | 0.16 | 0.00 | 92 | 1017.5 |
| 20260506085723 | 56 | 284 | 0.0 | 0.0 | 0.00 | 0.17 | 0.00 | 92 | 1017.5 |
| 20260506085218 | 56 | 284 | 0.0 | 0.0 | 0.00 | 0.17 | 0.00 | 92 | 1017.6 |
| 20260506084711 | 56 | 284 | 0.0 | 0.0 | 0.00 | 0.17 | 0.00 | 92 | 1017.5 |
| 20260506084205 | 56 | 284 | 0.0 | 0.0 | 0.00 | 0.18 | 0.00 | 92 | 1017.6 |
| 20260506083659 | 56 | 284 | 0.0 | 0.0 | 0.00 | 0.18 | 0.00 | 92 | 1017.6 |
| 20260506083154 | 56 | 284 | 0.0 | 0.0 | 0.00 | 0.19 | 0.00 | 92 | 1017.7 |
| 20260506082914 | 56 | 284 | 0.0 | 0.0 | 0.00 | 0.19 | 0.00 | 91 | 1017.7 |
| 20260506082141 | 56 | 284 | 0.0 | 0.0 | 0.00 | 0.19 | 0.00 | 91 | 1017.8 |
| 20260506081635 | 56 | 284 | 0.9 | 2.6 | 0.00 | 0.19 | 0.00 | 91 | 1017.9 |
| 20260506081129 | 56 | 284 | 1.7 | 2.6 | 0.00 | 0.19 | 0.00 | 92 | 1017.8 |
| 20260506080849 | 56 | 283 | 1.7 | 3.5 | 0.00 | 0.19 | 0.00 | 92 | 1017.7 |
| 20260506080117 | 56 | 283 | 2.6 | 5.2 | 0.00 | 0.19 | 0.00 | 92 | 1017.6 |
| 20260506073042 | 55 | 301 | 2.6 | 6.1 | 0.00 | 0.21 | 0.00 | 92 | 1017.2 |
| 20260506072535 | 55 | 268 | 2.6 | 4.3 | 0.00 | 0.22 | 0.00 | 93 | 1017.2 |
| 20260506072029 | 54 | 244 | 2.6 | 4.3 | 0.00 | 0.22 | 0.00 | 93 | 1017.1 |
| 20260506071749 | 54 | 240 | 3.5 | 6.1 | 0.00 | 0.22 | 0.00 | 93 | 1017.0 |
| 20260506071017 | 54 | 251 | 4.3 | 6.1 | 0.00 | 0.22 | 0.00 | 93 | 1017.1 |
| 20260506070952 | 54 | 247 | 4.3 | 5.2 | 0.00 | 0.22 | 0.00 | 93 | 1017.0 |
| 20260506062447 | 56 | 286 | 3.5 | 6.1 | 0.00 | 0.23 | 0.22 | 89 | 1016.6 |
| 20260506062212 | 56 | 290 | 3.5 | 6.1 | 0.00 | 0.24 | 0.22 | 89 | 1016.7 |
| 20260506061447 | 56 | 301 | 3.5 | 6.1 | 0.00 | 0.24 | 0.22 | 89 | 1016.6 |
| 20260506060947 | 56 | 298 | 3.5 | 5.2 | 0.00 | 0.24 | 0.22 | 89 | 1016.6 |
| 20260506060447 | 56 | 290 | 4.3 | 7.0 | 0.00 | 0.24 | 0.22 | 88 | 1016.5 |
| 20260506060212 | 57 | 295 | 4.3 | 7.0 | 0.00 | 0.24 | 0.22 | 88 | 1016.4 |
| 20260506051146 | 58 | 273 | 3.5 | 6.1 | 0.00 | 0.25 | 0.22 | 85 | 1016.0 |
| 20260506050416 | 58 | 284 | 3.5 | 7.0 | 0.00 | 0.25 | 0.22 | 84 | 1015.9 |
| 20260506044858 | 60 | 277 | 6.1 | 10.4 | 0.00 | 0.25 | 0.22 | 84 | 1015.7 |
| 20260506044601 | 60 | 261 | 5.2 | 8.7 | 0.00 | 0.25 | 0.22 | 86 | 1015.6 |
| 20260506044447 | 60 | 271 | 6.1 | 8.7 | 0.00 | 0.25 | 0.22 | 86 | 1015.7 |
| 20260506043340 | 60 | 246 | 3.5 | 5.2 | 0.00 | 0.25 | 0.22 | 87 | 1015.5 |
| 20260506042835 | 60 | 248 | 3.5 | 4.3 | 0.00 | 0.25 | 0.22 | 86 | 1015.5 |
| 20260506042328 | 60 | 249 | 2.6 | 4.3 | 0.00 | 0.25 | 0.22 | 86 | 1015.4 |
| 20260506041822 | 60 | 249 | 2.6 | 4.3 | 0.00 | 0.25 | 0.22 | 86 | 1015.5 |
| 20260506041321 | 60 | 249 | 3.5 | 4.3 | 0.00 | 0.25 | 0.22 | 87 | 1015.3 |
| 20260506040806 | 61 | 249 | 3.5 | 4.3 | 0.00 | 0.25 | 0.22 | 86 | 1015.3 |
| 20260506040524 | 61 | 250 | 4.3 | 5.2 | 0.00 | 0.25 | 0.22 | 87 | 1015.3 |
| 20260506035754 | 61 | 246 | 4.3 | 5.2 | 0.00 | 0.25 | 0.22 | 87 | 1015.2 |
| 20260506035248 | 61 | 244 | 3.5 | 5.2 | 0.00 | 0.25 | 0.22 | 88 | 1015.2 |
| 20260506034742 | 61 | 232 | 3.5 | 5.2 | 0.00 | 0.25 | 0.22 | 87 | 1015.0 |
| 20260506034236 | 61 | 232 | 3.5 | 5.2 | 0.00 | 0.25 | 0.22 | 86 | 1015.0 |
| 20260506033733 | 61 | 233 | 3.5 | 4.3 | 0.00 | 0.25 | 0.22 | 87 | 1015.0 |
| 20260506033224 | 61 | 232 | 2.6 | 3.5 | 0.00 | 0.25 | 0.22 | 87 | 1015.0 |
| 20260506032718 | 61 | 232 | 1.7 | 2.6 | 0.00 | 0.25 | 0.22 | 87 | 1015.0 |
| 20260506032212 | 61 | 232 | 1.7 | 2.6 | 0.00 | 0.25 | 0.22 | 86 | 1015.0 |
| 20260506031925 | 61 | 232 | 0.9 | 2.6 | 0.00 | 0.25 | 0.22 | 86 | 1014.9 |
| 20260506031424 | 61 | 232 | 1.7 | 1.7 | 0.00 | 0.25 | 0.22 | 85 | 1014.9 |
| 20260506030655 | 61 | 232 | 2.6 | 3.5 | 0.00 | 0.25 | 0.22 | 85 | 1014.9 |
| 20260506030410 | 62 | 232 | 2.6 | 3.5 | 0.00 | 0.25 | 0.22 | 85 | 1014.8 |
| 20260506025642 | 62 | 232 | 3.5 | 4.3 | 0.00 | 0.25 | 0.22 | 84 | 1014.6 |
| 20260506025405 | 62 | 232 | 3.5 | 4.3 | 0.00 | 0.25 | 0.22 | 84 | 1014.4 |
| 20260506024642 | 62 | 232 | 3.5 | 4.3 | 0.00 | 0.25 | 0.22 | 84 | 1014.4 |
| 20260506024141 | 62 | 221 | 2.6 | 3.5 | 0.00 | 0.25 | 0.22 | 83 | 1014.4 |
| 20260506023641 | 62 | 221 | 2.6 | 3.5 | 0.00 | 0.25 | 0.22 | 82 | 1014.4 |
| 20260506023410 | 62 | 219 | 2.6 | 3.5 | 0.00 | 0.25 | 0.22 | 81 | 1014.4 |
| 20260506022639 | 62 | 251 | 1.7 | 3.5 | 0.00 | 0.25 | 0.22 | 82 | 1014.4 |
| 20260506022410 | 62 | 251 | 1.7 | 4.3 | 0.00 | 0.25 | 0.22 | 81 | 1014.2 |
| 20260506021640 | 63 | 251 | 2.6 | 4.3 | 0.00 | 0.25 | 0.22 | 80 | 1014.3 |
| 20260506021137 | 63 | 249 | 1.7 | 4.3 | 0.00 | 0.25 | 0.22 | 80 | 1014.1 |
| 20260506020635 | 63 | 214 | 1.7 | 3.5 | 0.00 | 0.25 | 0.22 | 80 | 1014.1 |
| 20260506020406 | 63 | 213 | 2.6 | 5.2 | 0.00 | 0.25 | 0.22 | 80 | 1014.2 |
| 20260506015635 | 63 | 211 | 3.5 | 5.2 | 0.00 | 0.25 | 0.22 | 78 | 1014.2 |
| 20260506015354 | 63 | 194 | 3.5 | 4.3 | 0.00 | 0.25 | 0.22 | 78 | 1014.1 |
| 20260506014857 | 63 | 203 | 3.5 | 4.3 | 0.00 | 0.25 | 0.22 | 78 | 1014.1 |
| 20260506014401 | 63 | 212 | 3.5 | 6.1 | 0.00 | 0.25 | 0.22 | 77 | 1014.0 |
| 20260506013629 | 63 | 197 | 3.5 | 7.0 | 0.00 | 0.25 | 0.22 | 77 | 1014.0 |
| 20260506013129 | 64 | 194 | 3.5 | 7.0 | 0.00 | 0.25 | 0.22 | 76 | 1014.0 |
| 20260506012630 | 64 | 201 | 3.5 | 7.0 | 0.00 | 0.25 | 0.22 | 77 | 1014.0 |
| 20260506012124 | 64 | 199 | 4.3 | 7.0 | 0.00 | 0.25 | 0.22 | 77 | 1014.0 |
| 20260506011618 | 64 | 211 | 4.3 | 7.0 | 0.00 | 0.25 | 0.22 | 76 | 1014.0 |
| 20260506011114 | 64 | 208 | 3.5 | 7.0 | 0.00 | 0.25 | 0.22 | 76 | 1013.9 |
| 20260506010616 | 64 | 197 | 3.5 | 5.2 | 0.00 | 0.25 | 0.22 | 76 | 1014.0 |
| 20260506010344 | 64 | 218 | 3.5 | 5.2 | 0.00 | 0.25 | 0.22 | 78 | 1013.9 |
| 20260506005616 | 64 | 230 | 4.3 | 5.2 | 0.00 | 0.25 | 0.22 | 77 | 1014.0 |
| 20260506005115 | 64 | 226 | 4.3 | 6.1 | 0.00 | 0.25 | 0.22 | 79 | 1013.9 |
| 20260506004617 | 64 | 230 | 4.3 | 6.1 | 0.00 | 0.25 | 0.22 | 78 | 1013.9 |
| 20260506004116 | 64 | 236 | 4.3 | 5.2 | 0.00 | 0.25 | 0.22 | 77 | 1014.0 |
| 20260506003614 | 64 | 234 | 4.3 | 5.2 | 0.00 | 0.25 | 0.22 | 78 | 1013.9 |
| 20260506003116 | 64 | 224 | 3.5 | 5.2 | 0.00 | 0.25 | 0.22 | 77 | 1013.9 |
| 20260506002615 | 64 | 236 | 1.7 | 4.3 | 0.00 | 0.25 | 0.22 | 76 | 1013.9 |
| 20260506002346 | 64 | 244 | 0.9 | 3.5 | 0.00 | 0.25 | 0.22 | 74 | 1013.9 |
| 20260506001614 | 65 | 246 | 0.9 | 2.6 | 0.00 | 0.25 | 0.22 | 74 | 1013.8 |
| 20260506001116 | 65 | 245 | 1.7 | 2.6 | 0.00 | 0.25 | 0.22 | 75 | 1013.8 |
| 20260506000616 | 64 | 245 | 1.7 | 2.6 | 0.00 | 0.25 | 0.22 | 73 | 1013.8 |
| 20260506000116 | 65 | 246 | 1.7 | 4.3 | 0.00 | 0.25 | 0.22 | 74 | 1013.9 |
| 20260505235841 | 65 | 245 | 3.5 | 7.0 | 0.00 | 0.25 | 0.22 | 74 | 1013.8 |
| 20260505235116 | 65 | 246 | 2.6 | 7.0 | 0.00 | 0.25 | 0.22 | 74 | 1013.7 |
| 20260505234617 | 66 | 273 | 2.6 | 6.1 | 0.00 | 0.25 | 0.22 | 74 | 1013.7 |
| 20260505234110 | 66 | 246 | 3.5 | 6.1 | 0.00 | 0.25 | 0.22 | 76 | 1013.7 |
| 20260505233605 | 66 | 265 | 3.5 | 6.1 | 0.00 | 0.25 | 0.22 | 73 | 1013.9 |
| 20260505233321 | 65 | 259 | 2.6 | 7.0 | 0.00 | 0.25 | 0.22 | 73 | 1013.7 |
| 20260505232556 | 65 | 269 | 3.5 | 8.7 | 0.00 | 0.25 | 0.22 | 76 | 1013.7 |
| 20260505232058 | 65 | 250 | 4.3 | 8.7 | 0.00 | 0.25 | 0.22 | 74 | 1013.8 |
| 20260505231554 | 65 | 261 | 3.5 | 7.8 | 0.00 | 0.25 | 0.22 | 77 | 1013.8 |
| 20260505231055 | 64 | 253 | 3.5 | 7.8 | 0.00 | 0.25 | 0.22 | 76 | 1013.8 |
| 20260505230554 | 65 | 263 | 3.5 | 7.8 | 0.00 | 0.25 | 0.22 | 76 | 1013.8 |
| 20260505230055 | 63 | 251 | 3.5 | 7.8 | 0.00 | 0.25 | 0.22 | 79 | 1013.8 |
| 20260505225555 | 64 | 252 | 4.3 | 7.8 | 0.00 | 0.25 | 0.22 | 76 | 1013.9 |
| 20260505225324 | 63 | 213 | 4.3 | 7.8 | 0.00 | 0.25 | 0.22 | 79 | 1013.9 |
| 20260505224821 | 63 | 236 | 3.5 | 7.8 | 0.00 | 0.25 | 0.22 | 79 | 1014.0 |
| 20260505224056 | 64 | 270 | 3.5 | 7.0 | 0.00 | 0.25 | 0.22 | 80 | 1014.0 |
| 20260505223554 | 63 | 245 | 3.5 | 7.0 | 0.00 | 0.25 | 0.22 | 79 | 1014.1 |
| 20260505223056 | 62 | 228 | 3.5 | 5.2 | 0.00 | 0.25 | 0.22 | 81 | 1014.1 |
| 20260505222555 | 62 | 238 | 1.7 | 4.3 | 0.00 | 0.25 | 0.22 | 81 | 1014.3 |
| 20260505222057 | 62 | 248 | 1.7 | 3.5 | 0.00 | 0.25 | 0.22 | 80 | 1014.3 |
| 20260505221558 | 61 | 240 | 1.7 | 4.3 | 0.00 | 0.25 | 0.22 | 81 | 1014.4 |
| 20260505221058 | 61 | 240 | 2.6 | 4.3 | 0.00 | 0.25 | 0.22 | 81 | 1014.3 |
| 20260505220546 | 61 | 260 | 3.5 | 5.2 | 0.00 | 0.25 | 0.22 | 82 | 1014.4 |
| 20260505220040 | 61 | 263 | 2.6 | 5.2 | 0.00 | 0.25 | 0.22 | 83 | 1014.4 |
| 20260505215805 | 61 | 251 | 3.5 | 5.2 | 0.00 | 0.25 | 0.22 | 84 | 1014.4 |
| 20260505215032 | 60 | 228 | 4.3 | 7.0 | 0.00 | 0.25 | 0.22 | 83 | 1014.4 |
| 20260505214522 | 60 | 217 | 4.3 | 7.0 | 0.00 | 0.25 | 0.22 | 85 | 1014.5 |
| 20260505214016 | 60 | 254 | 5.2 | 7.8 | 0.00 | 0.25 | 0.22 | 86 | 1014.4 |
| 20260505213509 | 60 | 249 | 5.2 | 7.8 | 0.00 | 0.25 | 0.22 | 87 | 1014.5 |
| 20260505213005 | 60 | 259 | 4.3 | 7.0 | 0.00 | 0.25 | 0.22 | 86 | 1014.5 |
| 20260505212723 | 60 | 263 | 3.5 | 7.0 | 0.00 | 0.25 | 0.22 | 86 | 1014.6 |
| 20260505211953 | 60 | 240 | 2.6 | 5.2 | 0.00 | 0.25 | 0.22 | 86 | 1014.6 |
| 20260505211446 | 60 | 236 | 2.6 | 5.2 | 0.00 | 0.25 | 0.22 | 86 | 1014.6 |
| 20260505210940 | 60 | 236 | 3.5 | 6.1 | 0.00 | 0.25 | 0.22 | 86 | 1014.6 |
| 20260505210437 | 60 | 236 | 3.5 | 6.1 | 0.00 | 0.25 | 0.22 | 86 | 1014.6 |
| 20260505205934 | 60 | 255 | 3.5 | 7.0 | 0.00 | 0.25 | 0.22 | 86 | 1014.6 |
| 20260505205422 | 60 | 238 | 4.3 | 7.8 | 0.00 | 0.25 | 0.22 | 86 | 1014.6 |
| 20260505204916 | 60 | 256 | 5.2 | 8.7 | 0.00 | 0.25 | 0.22 | 85 | 1014.6 |
| 20260505204411 | 60 | 242 | 5.2 | 8.7 | 0.00 | 0.25 | 0.22 | 85 | 1014.7 |
| 20260505203905 | 61 | 232 | 4.3 | 8.7 | 0.00 | 0.25 | 0.22 | 83 | 1014.7 |
| 20260505203358 | 61 | 234 | 3.5 | 7.8 | 0.00 | 0.25 | 0.22 | 84 | 1014.6 |
| 20260505202852 | 61 | 209 | 4.3 | 7.8 | 0.00 | 0.25 | 0.22 | 85 | 1014.6 |
| 20260505202346 | 60 | 157 | 3.5 | 7.8 | 0.00 | 0.25 | 0.22 | 84 | 1014.6 |
| 20260505201840 | 60 | 151 | 3.5 | 7.0 | 0.00 | 0.25 | 0.22 | 86 | 1014.7 |
| 20260505201334 | 60 | 186 | 3.5 | 6.1 | 0.00 | 0.25 | 0.22 | 86 | 1014.6 |
| 20260505200827 | 60 | 162 | 3.5 | 5.2 | 0.00 | 0.25 | 0.22 | 86 | 1014.7 |
| 20260505200322 | 59 | 141 | 3.5 | 5.2 | 0.00 | 0.25 | 0.22 | 87 | 1014.7 |
| 20260505195816 | 59 | 110 | 2.6 | 5.2 | 0.00 | 0.25 | 0.22 | 86 | 1014.8 |
| 20260505195310 | 59 | 142 | 1.7 | 4.3 | 0.00 | 0.25 | 0.22 | 88 | 1014.8 |